Regional Weather Roundup
Issued by NWS Goodland, KS

Home | Current Version | Previous Version | Text Only | Print | Product List | Glossary Off
Versions: 1 2 3 4 5 6 7 8 9 10 11 12 13 14 15 16 17 18 19 20 21 22 23 24 25 26 27 28 29 30 31 32 33 34 35 36 37 38 39 40 41 42 43 44 45 46 47 48 49 50

000
ASUS43 KGLD 231008
RWRGLD

GOODLAND FORECAST AREA HOURLY WEATHER ROUNDUP
NATIONAL WEATHER SERVICE GOODLAND KS
300 AM MST MON JAN 23 2017

...OFFICIAL OBSERVATIONS...

CITY           SKY/WX    TMP DP  RH WIND       PRES   REMARKS
GOODLAND KS    CLOUDY    32  24  72 S10       29.78F
HILL CITY KS   CLEAR     26  24  92 W3        29.85F
IMPERIAL NEB   MOCLDY    31  24  75 S7        29.79F
MCCOOK NEB     CLEAR     23  22  96 CALM      29.83S
AKRON CO       CLOUDY    33  21  61 S14       29.72F
BURLINGTON CO  CLOUDY    35  26  69 S21       29.75F
LIMON CO       CLOUDY    30  20  66 S13       29.71F WCI  20
$$

...UNOFFICIAL OBSERVATIONS...

CITY           SKY/WX    TMP DP  RH WIND       PRES   REMARKS
LENORA KS        N/A     31  32 100 CALM        N/A
NORTON KS      CLEAR     28  23  80 CALM      29.83F
SHARON SPRINGS   N/A     33  28  81 S14         N/A
TRIBUNE KS     PTCLDY    32  27  80 S8        29.85
TRENTON NEB      N/A     28  32 100 CALM        N/A
KIT CARSON CO    N/A     30  24  79 MISG        N/A
YUMA CO        MOCLDY    32  23  69 S9        29.74F
$$



USA.gov is the U.S. government's official web portal to all federal, state and local government web resources and services.